STARLINK-32364, 61622

Orbit data source: Space-Track

STARLINK-32364, 61622 is a payload satellite owned by SpaceX/Seattle (US) in LEO that was launched on Wed, 23 Oct 2024 UTC via an FALCON 9 launch vehicle from the Air Force Eastern Test Range (AFETR). Payload-class satellites include a variety of spacecraft equipped with specific instruments for various scientific and technological missions. These include communications satellites like Starlink; space stations such as the ISS; scientific satellites like the Hubble; Earth observation satellites from companies like Planet Labs, Umbra, and HawkEye 360; GPS; miniature CubeSats for education and research; and military/defense satellites.

Loading next visibility...
Identifier
61622, 2024-191B
Orbit
LEO
Country
Flag of USUS
Related business
Manufacturer
SpaceX/Seattle
Mission
Operational Commercial Communications
Bus & Motor
STARLINK V2M, Unknown motor
Mass
730 kg wet, ~700 kg dry
Launch date (UTC)
2024-10-23 (11 months ago)
Launch vehicle
FALCON 9
Launch site
Air Force Eastern Test Range (AFETR)
Object type
Payload
Rocket body
Debris
Shape & HBR
Box + 2 Pan, 14.5 m
Radar Cross Section
36.964 m², Large (>1 m²)

Expand to show TLE details & history
Last TLE update: 1 day ago

TLE from 1 day ago
0 STARLINK-32364
1 61622U 24191B   25259.73419188  .00004933  00000-0  18856-3 0  9998
2 61622  43.0055  56.7777 0002263 282.9327  77.1272 15.27603034 50935
Epoch: 2025-09-16T17:37Z
TLE epoch observation values (Epoch: 2025-09-16T17:37:14.178Z)
Latitude
-0.00001°
Longitude
156.54837°
Altitude
482.411 km
Speed
7.626 km/s
True Right ascension
03h 47m 06s
True Declination
0° 00' 00"
Sunlit
Object was in full shadow at epoch
Visualization orbit readout
Latitude
Unknown
Longitude
Unknown
Altitude
Unknown
Speed
Unknown
Apparent Right ascension
Unknown
Apparent Declination
Unknown
Sunlit
N/A
Visualization observer readout
Local Sidereal Time
12:32:59
Azimuth
Unknown
Elevation
Unknown
Doppler factor
Unknown
Orbital elements
Apogee altitude
486.478 km
Perigee altitude
483.371 km
Semi-major axis
6,863.061 km
Eccentricity
0.00023
Inclination
43.0055°
RAAN
56.7777°
Arg. of periapsis
282.9327°
True anomaly
77.15248°
Mean anomaly
77.1272°
Eccentric anomaly
77.13984°
Mean motion
3.81739 °/min
Orbital period
94.31 mins
BSTAR
0.00018856
Loading maneuver chart data...
Computing Atmospheric mass density...
Loading historical data...
Loading historical data...
Loading historical data...
Loading historical data...
Loading historical data...
Loading historical data...
Loading historical data...

Documentation

Showing up to 5 results
|